FW7129 Weather Reports


Display with metric or nautical units.
time (UTC)temp
F
wind
direction
speed
MPH
gust
MPH
rain 1hr
in
rain 24hr
in
rain mn
in
humidity
%
barometer
mb
20220121114722 38 257 3.0 12.0 0.00 0.00 0.00 49 1026.5
20220121113110 38 261 1.0 10.0 0.00 0.00 0.00 49 1026.4
20220121111627 38 223 2.0 17.0 0.00 0.00 0.00 50 1026.2
20220121110057 38 247 3.0 10.0 0.00 0.00 0.00 50 1026.3
20220121103047 38 235 2.0 9.0 0.00 0.00 0.00 51 1026.0
20220121101724 38 283 2.0 20.0 0.00 0.00 0.00 51 1026.2
20220121100107 38 279 2.0 12.0 0.00 0.00 0.00 52 1026.6
20220121094616 38 236 5.0 12.0 0.00 0.00 0.00 59 1026.4
20220121093034 38 222 0.0 6.0 0.00 0.00 0.00 66 1026.3
20220121091621 38 240 4.0 11.0 0.00 0.00 0.00 59 1026.1
20220121090225 38 230 1.0 10.0 0.00 0.00 0.00 68 1025.9
20220121084532 38 238 2.0 11.0 0.00 0.00 0.00 71 1026.1
20220121083124 38 247 2.0 10.0 0.00 0.00 0.00 69 1026.0
20220121081506 38 246 5.0 11.0 0.00 0.00 0.00 62 1026.5
20220121080045 38 211 5.0 11.0 0.00 0.00 0.00 62 1027.2
20220121074632 38 194 4.0 11.0 0.00 0.00 0.00 65 1027.0
20220121073052 38 237 2.0 14.0 0.00 0.00 0.00 65 1027.0
20220121071724 38 230 5.0 14.0 0.00 0.00 0.00 65 1027.2
20220121070032 38 221 6.0 15.0 0.00 0.00 0.00 68 1027.2
20220121064602 38 222 1.0 11.0 0.00 0.00 0.00 68 1027.8
20220121063146 38 228 5.0 12.0 0.00 0.00 0.00 64 1027.9
20220121061546 38 220 8.0 17.0 0.00 0.00 0.00 64 1027.9
20220121060051 38 234 6.0 10.0 0.00 0.07 0.00 70 1027.8
20220121054632 39 181 3.0 13.0 0.00 0.07 0.00 68 1028.0
20220121053028 38 220 2.0 14.0 0.00 0.07 0.00 70 1028.1
20220121051544 39 239 3.0 9.0 0.00 0.07 0.00 68 1027.8
20220121050126 39 259 3.0 12.0 0.00 0.13 0.00 62 1027.8
20220121044616 39 235 6.0 11.0 0.00 0.13 0.00 60 1028.2
20220121043129 39 236 8.0 15.0 0.00 0.13 0.00 59 1028.1
20220121040107 40 240 4.0 12.0 0.00 0.68 0.00 56 1027.9
20220121034620 40 221 5.0 15.0 0.00 0.68 0.00 53 1027.9
20220121033009 40 274 6.0 14.0 0.00 0.68 0.00 53 1027.2
20220121031705 40 227 4.0 14.0 0.00 0.68 0.00 52 1027.5
20220121030009 40 217 6.0 15.0 0.00 0.68 0.00 52 1027.5
20220121024546 40 257 5.0 15.0 0.00 0.68 0.00 52 1027.3
20220121023215 41 259 5.0 18.0 0.00 0.68 0.00 52 1027.1
20220121020036 41 279 4.0 17.0 0.00 0.68 0.00 64 1026.9
20220121014606 42 236 5.0 14.0 0.00 0.68 0.00 64 1027.0
20220121013028 42 226 4.0 12.0 0.00 0.68 0.00 66 1026.8
20220121011721 42 254 2.0 9.0 0.00 0.68 0.00 66 1026.8
20220121010009 42 281 3.0 16.0 0.00 0.68 0.00 65 1026.4
20220121004711 42 237 6.0 14.0 0.00 0.68 0.00 63 1026.1
20220121003245 42 244 3.0 18.0 0.00 0.68 0.00 61 1025.8
20220121001542 42 229 3.0 18.0 0.00 0.68 0.00 63 1025.5
20220121000058 43 246 2.0 14.0 0.00 0.68 0.00 68 1025.4
20220120234649 43 232 2.0 11.0 0.00 0.68 0.00 69 1024.9
20220120233111 43 226 2.0 12.0 0.00 0.68 0.00 70 1024.8
20220120231609 43 221 3.0 15.0 0.00 0.68 0.00 70 1024.2
20220120230008 43 267 4.0 19.0 0.00 0.68 0.00 70 1024.2
20220120224556 43 248 5.0 17.0 0.00 0.68 0.00 69 1024.1
20220120223116 43 219 5.0 18.0 0.00 0.68 0.00 71 1024.0
20220120221524 43 227 3.0 18.0 0.00 0.68 0.00 72 1024.3
20220120220129 43 261 5.0 17.0 0.00 0.68 0.00 72 1024.1
20220120214601 43 234 6.0 18.0 0.00 0.68 0.00 73 1024.0
20220120213134 43 218 6.0 18.0 0.00 0.68 0.00 73 1023.9
20220120211527 43 229 6.0 14.0 0.00 0.68 0.00 70 1023.9
20220120210134 43 269 7.0 16.0 0.00 0.71 0.00 70 1024.1
20220120204627 43 244 10.0 16.0 0.00 0.71 0.00 71 1024.3
20220120203020 42 220 8.0 16.0 0.00 0.71 0.00 73 1024.5
20220120201620 42 211 7.0 15.0 0.00 0.71 0.00 75 1024.6
20220120194523 43 239 7.0 15.0 0.00 0.72 0.00 72 1024.3
20220120193132 42 221 7.0 19.0 0.00 0.72 0.00 71 1024.5
20220120191733 43 274 5.0 12.0 0.00 0.72 0.00 70 1024.6
20220120190100 43 233 8.0 16.0 0.00 0.72 0.00 71 1025.0
20220120184633 43 247 8.0 19.0 0.00 0.72 0.00 72 1025.1
20220120183006 43 261 8.0 20.0 0.00 0.72 0.00 73 1025.2
20220120181545 43 231 7.0 16.0 0.00 0.72 0.00 76 1025.2
20220120180109 43 208 4.0 18.0 0.00 0.72 0.00 76 1025.5
20220120174509 43 225 6.0 14.0 0.00 0.72 0.00 76 1025.8
20220120173048 43 233 6.0 16.0 0.00 0.72 0.00 77 1025.9
20220120171600 43 234 6.0 16.0 0.00 0.72 0.00 78 1026.1
20220120170039 42 237 7.0 17.0 0.00 0.72 0.00 81 1026.4
20220120164623 43 235 6.0 16.0 0.00 0.72 0.00 85 1026.4
20220120163005 43 244 7.0 13.0 0.00 0.72 0.00 86 1026.0
20220120161647 43 199 4.0 13.0 0.00 0.72 0.00 87 1025.8
20220120160121 43 223 4.0 9.0 0.00 0.72 0.00 88 1025.4
20220120154521 43 241 5.0 11.0 0.00 0.72 0.00 87 1025.3
20220120153018 43 220 5.0 15.0 0.00 0.72 0.00 87 1025.1
20220120151543 43 219 7.0 14.0 0.00 0.72 0.00 86 1024.9
20220120150102 43 232 7.0 17.0 0.00 0.72 0.00 86 1024.6
20220120144509 43 189 6.0 19.0 0.00 0.72 0.00 86 1024.2
20220120141733 43 169 9.0 19.0 0.00 0.72 0.00 86 1023.8
20220120140019 43 227 8.0 17.0 0.00 0.72 0.00 85 1023.3
20220120134554 43 191 11.0 18.0 0.00 0.72 0.00 85 1023.3
20220120133211 43 248 9.0 16.0 0.00 0.72 0.00 85 1023.1
20220120131529 43 229 5.0 18.0 0.00 0.72 0.00 85 1023.2
20220120130122 43 232 8.0 23.0 0.00 0.72 0.00 85 1023.1
20220120123045 44 245 7.0 17.0 0.00 0.72 0.00 86 1022.7
20220120121624 45 233 8.0 17.0 0.00 0.72 0.00 86 1022.5
20220120120017 45 213 5.0 17.0 0.00 0.72 0.00 86 1022.1